Temperature
9 9 8 8 8 7 7 6 6 5 5 5 5 5 5 4 4 4 3 3 2 1 1 0 0 -0 0 0 1 1 1 1 0 1 1 2 3 3 3 3 4 5 6
8 8 7 7 6 6 5 5 5 5 5 4 4 4 4 4 3 3 2 2 1 -0 -1 -2 -2 -2 -1 -1 -1 -0 -0 -1 -1 -1 -0 0 1 2 2 2 3 3 4
7 6 6 5 5 5 4 4 4 4 4 4 4 3 3 3 3 2 2 1 0 -1 -2 -3 -3 -2 -2 -2 -2 -2 -2 -2 -2 -2 -2 -1 -1 -0 0 1 2 2 3
6 5 5 4 4 4 4 3 3 3 3 3 3 2 2 2 2 1 1 0 -1 -2 -3 -3 -3 -3 -3 -3 -3 -3 -3 -3 -3 -3 -3 -3 -2 -1 -1 -1 -0 1 1
5 4 4 3 3 3 3 3 3 2 2 2 2 1 1 1 0 -1 -1 -2 -3 -3 -3 -3 -4 -4 -5 -4 -4 -4 -4 -4 -4 -4 -3 -3 -3 -3 -2 -2 -1 -0 0
4 3 3 3 2 2 2 2 2 2 1 1 1 0 -0 -1 -1 -2 -4 -4 -4 -5 -5 -4 -5 -5 -6 -5 -5 -5 -5 -4 -4 -4 -4 -4 -4 -4 -3 -2 -2 -1 -1
3 2 2 2 2 2 1 1 1 1 0 0 -0 -1 -1 -2 -3 -4 -5 -6 -6 -6 -6 -6 -6 -6 -6 -6 -6 -5 -5 -5 -5 -5 -5 -5 -4 -4 -3 -3 -2 -2 -2
2 2 1 1 1 1 1 0 0 -0 -1 -1 -2 -2 -3 -3 -4 -5 -7 -7 -7 -6 -6 -6 -6 -6 -6 -6 -6 -6 -6 -6 -6 -5 -5 -4 -4 -3 -3 -3 -3 -3 -2
1 1 1 0 0 -0 -0 -1 -1 -2 -2 -3 -3 -4 -4 -4 -5 -7 -7 -7 -7 -7 -7 -7 -7 -7 -7 -7 -6 -7 -7 -6 -6 -6 -6 -5 -4 -4 -4 -4 -3 -3 -2
1 0 -0 -0 -1 -1 -1 -2 -3 -3 -4 -4 -4 -4 -5 -6 -7 -8 -8 -8 -7 -7 -7 -7 -7 -7 -7 -7 -7 -7 -7 -7 -7 -7 -6 -6 -5 -5 -5 -4 -4 -4 -4
-0 -0 -1 -1 -2 -2 -2 -3 -4 -4 -4 -4 -4 -4 -6 -7 -8 -8 -8 -8 -8 -7 -8 -8 -8 -8 -7 -8 -8 -8 -9 -8 -7 -8 -7 -7 -6 -5 -5 -5 -5 -5 -5
-1 -1 -1 -2 -2 -3 -3 -4 -4 -5 -5 -5 -6 -6 -7 -8 -9 -9 -8 -8 -8 -8 -8 -8 -8 -8 -8 -8 -9 -9 -9 -9 -9 -9 -8 -7 -7 -6 -6 -6 -6 -6 -5
-1 -1 -2 -2 -3 -4 -4 -4 -5 -5 -6 -7 -8 -9 -9 -9 -9 -9 -9 -8 -8 -8 -8 -8 -8 -9 -9 -10 -10 -10 -10 -10 -10 -9 -8 -8 -8 -7 -7 -7 -6 -6 -6
-2 -2 -3 -3 -3 -4 -4 -5 -6 -7 -8 -9 -9 -9 -9 -9 -9 -9 -9 -9 -9 -9 -9 -8 -9 -10 -10 -10 -11 -11 -11 -10 -10 -9 -9 -9 -8 -8 -7 -7 -7 -7 -7
-3 -3 -4 -4 -4 -5 -5 -6 -7 -8 -10 -10 -10 -10 -9 -9 -10 -9 -9 -9 -9 -9 -9 -9 -10 -11 -11 -11 -11 -11 -11 -11 -10 -10 -10 -9 -9 -8 -8 -7 -7 -7 -7
-4 -4 -4 -5 -5 -6 -7 -7 -8 -9 -10 -10 -10 -10 -10 -10 -10 -9 -9 -9 -9 -10 -10 -11 -11 -11 -11 -11 -11 -11 -11 -11 -11 -10 -10 -10 -9 -8 -8 -8 -8 -8 -8
-4 -5 -5 -6 -6 -7 -8 -9 -10 -9 -10 -10 -10 -10 -10 -10 -10 -10 -10 -10 -10 -11 -11 -11 -11 -12 -12 -12 -12 -12 -11 -11 -11 -10 -10 -9 -9 -8 -8 -8 -8 -8 -8
-5 -6 -6 -7 -7 -8 -9 -10 -10 -11 -11 -11 -10 -11 -11 -10 -10 -10 -10 -11 -12 -12 -12 -12 -12 -12 -12 -12 -12 -12 -11 -11 -11 -10 -10 -9 -8 -8 -8 -8 -8 -8 -8
-6 -6 -7 -8 -8 -9 -10 -10 -11 -11 -11 -11 -11 -11 -11 -11 -11 -11 -11 -12 -12 -12 -12 -12 -12 -12 -12 -12 -12 -12 -11 -11 -11 -10 -9 -9 -8 -8 -8 -8 -8 -8 -7
-7 -7 -8 -8 -9 -9 -10 -11 -11 -11 -11 -11 -11 -11 -11 -11 -11 -11 -12 -12 -12 -12 -13 -13 -13 -13 -12 -12 -12 -12 -11 -11 -10 -9 -9 -9 -8 -8 -8 -8 -8 -7 -7
-7 -8 -9 -9 -9 -10 -11 -11 -11 -11 -11 -12 -12 -12 -11 -11 -12 -12 -12 -12 -13 -13 -13 -13 -13 -12 -11 -11 -12 -11 -11 -10 -9 -9 -9 -8 -8 -8 -8 -8 -7 -7 -7
-8 -9 -9 -10 -10 -11 -11 -11 -11 -12 -12 -12 -12 -12 -12 -12 -12 -12 -13 -13 -13 -13 -13 -13 -12 -11 -11 -11 -11 -11 -10 -9 -9 -9 -8 -8 -8 -8 -7 -7 -7 -7 -7
-8 -9 -10 -10 -11 -11 -11 -11 -12 -12 -12 -13 -13 -13 -13 -13 -13 -13 -13 -13 -13 -13 -13 -12 -12 -11 -11 -10 -10 -10 -9 -9 -8 -8 -8 -7 -7 -7 -7 -7 -7 -7 -6
-10 -10 -11 -11 -11 -11 -11 -11 -12 -12 -13 -13 -13 -13 -13 -13 -13 -13 -13 -13 -13 -13 -12 -12 -11 -11 -10 -10 -9 -9 -8 -8 -8 -7 -7 -7 -7 -7 -6 -6 -6 -6 -6
-10 -10 -10 -11 -11 -11 -11 -12 -12 -13 -13 -13 -14 -14 -14 -14 -14 -13 -13 -13 -13 -12 -12 -11 -10 -10 -9 -9 -8 -8 -8 -8 -7 -6 -6 -6 -6 -6 -6 -6 -6 -6 -6
-10 -10 -10 -11 -11 -11 -12 -12 -12 -13 -13 -14 -14 -14 -14 -14 -14 -13 -13 -13 -13 -12 -11 -10 -10 -9 -9 -8 -8 -8 -8 -7 -6 -6 -6 -6 -6 -6 -6 -6 -5 -5 -5
Wind_Speed
7 7 8 8 7 7 7 7 7 7 8 9 10 10 11 11 12 12 11 11 13 13 11 13 14 13 10 9 9 9 8 9 13 16 13 12 14 15 15 13 14 15 15
7 7 8 7 7 7 7 7 7 8 8 8 9 9 10 11 11 11 11 12 13 14 13 12 13 12 12 11 11 11 9 7 9 16 17 14 14 13 15 16 15 14 14
6 7 7 7 7 7 8 8 8 8 9 9 9 10 11 12 12 10 10 12 12 12 11 12 14 13 12 12 13 12 8 9 8 12 16 14 13 11 14 15 15 13 14
6 6 6 7 7 7 7 8 8 8 9 10 11 10 11 13 11 11 14 13 12 11 10 11 13 13 15 15 14 11 10 11 10 11 13 14 13 12 11 13 14 11 13
5 5 5 6 6 7 7 8 8 8 10 10 11 11 11 12 12 17 16 16 14 14 13 12 13 20 23 20 18 16 16 14 13 14 15 15 14 12 12 12 16 15 13
4 4 5 6 7 7 8 8 8 9 10 10 11 13 13 14 23 26 22 15 15 15 17 16 16 16 21 28 30 28 26 21 19 18 18 20 20 17 15 15 16 18 18
4 5 6 7 7 7 9 9 9 9 10 11 11 12 13 16 25 27 27 19 14 15 16 16 17 18 23 16 23 28 25 31 30 23 22 22 22 20 20 19 18 20 21
5 6 6 7 7 7 8 8 9 9 10 10 12 13 13 17 25 27 28 16 13 14 15 15 16 16 18 23 21 20 19 20 24 20 18 20 20 19 19 20 21 21 20
5 6 7 7 7 8 9 9 9 9 11 10 12 12 14 17 24 27 27 14 13 14 14 14 17 16 27 33 25 23 23 20 25 30 32 29 31 30 25 18 17 17 18
6 7 7 7 7 8 9 8 8 9 11 13 13 12 13 14 22 26 27 14 15 14 13 13 20 24 30 34 24 22 22 21 22 23 23 23 19 20 25 17 14 15 16
6 7 7 7 8 8 7 7 10 11 12 12 14 13 11 15 20 25 27 16 15 16 15 14 14 28 33 35 31 19 24 27 21 19 18 17 15 12 12 12 13 14 15
6 7 7 8 8 9 9 9 9 10 12 13 13 14 10 10 17 22 28 26 25 18 16 15 17 30 33 34 26 27 33 27 15 16 16 16 14 13 13 14 14 13 9
7 7 8 9 8 8 9 10 10 9 10 12 12 13 12 9 13 25 27 28 29 19 16 25 26 29 30 22 26 32 26 16 16 16 16 16 14 14 14 13 11 8 6
7 8 8 8 9 8 7 7 8 9 10 13 13 14 14 13 11 11 14 16 21 19 17 18 23 26 23 24 23 19 15 15 17 16 17 16 15 13 12 11 11 7 4
8 8 8 8 8 8 8 7 10 8 12 15 13 13 14 15 18 28 23 17 17 19 21 12 11 14 14 15 15 14 14 15 17 16 16 17 16 14 12 9 7 5 2
7 7 7 7 7 8 10 11 15 16 22 23 22 21 17 22 29 30 30 30 31 31 23 15 14 14 15 17 17 17 16 16 17 17 16 16 16 14 12 9 6 3 0
7 8 7 7 8 9 10 12 14 15 18 21 22 24 24 27 28 29 29 29 28 28 16 13 14 15 16 16 16 17 17 17 17 16 16 16 15 13 11 8 4 1 3
7 10 10 8 9 9 10 11 12 14 15 12 15 22 25 27 28 28 27 24 18 17 12 13 15 15 16 16 17 17 17 17 16 16 16 15 13 11 8 5 3 2 3
7 7 8 8 8 9 10 11 11 13 14 14 13 15 22 24 25 23 22 13 14 14 14 14 15 15 15 16 16 16 17 17 17 17 15 14 11 9 6 4 4 5 4
7 14 14 10 9 10 10 12 12 13 14 14 14 14 15 16 13 13 12 10 12 14 15 15 15 15 15 16 16 16 16 17 17 15 14 12 9 7 6 6 5 4 4
7 10 16 12 9 11 12 12 12 13 14 14 14 17 24 15 12 12 12 12 12 14 15 15 15 15 15 15 16 17 18 16 15 14 12 9 8 6 5 5 5 4 3
7 8 8 10 11 11 13 12 11 13 14 15 14 16 23 14 11 12 12 12 11 12 13 15 15 15 15 15 17 17 17 16 15 13 10 7 6 5 5 4 4 3 3
8 10 10 11 12 16 15 11 12 13 13 14 14 14 14 13 12 12 12 12 12 13 13 14 15 15 15 16 16 15 15 15 13 11 8 6 5 4 4 3 3 3 3
8 9 11 11 12 11 11 11 12 13 13 14 14 14 13 13 13 14 13 12 13 13 13 14 15 19 23 20 17 15 14 13 9 6 6 4 4 4 3 3 3 3 3
7 8 10 10 11 11 11 12 12 13 14 14 14 14 14 14 14 13 12 12 13 13 15 16 15 17 22 26 22 17 18 16 9 5 4 4 4 4 4 3 3 3 3
8 9 10 9 9 9 10 12 12 13 12 13 13 13 14 14 13 12 12 12 13 14 15 15 18 22 25 21 19 19 16 12 11 9 5 3 4 4 4 3 4 4 4
Wind_Direction
57 52 45 33 23 17 13 1 350 343 340 341 339 338 337 335 333 330 327 333 330 323 319 318 316 315 318 318 311 304 298 297 301 302 305 309 306 302 301 295 292 289 286
53 49 38 24 14 10 2 351 345 342 338 337 335 334 334 333 327 322 325 330 321 320 322 325 326 327 321 317 310 302 293 296 300 303 303 303 300 300 300 300 298 294 289
52 46 32 17 8 359 349 344 344 342 338 339 337 334 331 329 323 318 321 320 316 315 321 327 323 317 310 308 304 296 288 300 288 290 295 298 297 299 301 300 297 295 294
51 40 25 7 353 344 338 338 338 336 337 337 334 330 328 326 321 325 326 322 318 316 318 316 314 311 309 308 305 296 300 299 289 287 290 294 295 293 292 298 299 293 293
46 30 7 347 340 339 337 335 334 334 338 329 329 328 328 326 328 329 327 323 320 320 318 312 309 312 313 314 314 313 309 304 302 301 299 297 295 296 294 293 293 294 287
35 10 349 345 343 341 335 334 334 332 329 328 328 327 328 330 327 328 328 321 319 320 318 316 313 310 313 318 314 310 309 309 310 305 301 297 295 293 292 292 294 295 294
14 355 346 341 336 332 333 332 329 325 324 325 324 324 321 320 324 326 324 324 317 314 311 312 315 317 318 307 307 312 310 307 303 297 293 291 290 290 292 295 294 291 288
358 342 334 332 328 325 324 322 319 319 322 321 319 316 313 316 323 323 323 323 312 306 306 307 309 309 312 316 315 314 308 305 300 299 292 289 289 291 292 294 293 289 284
340 329 325 325 323 323 321 318 317 320 321 315 312 310 310 313 319 321 324 317 311 307 306 308 312 312 315 321 321 315 312 310 309 306 304 303 302 303 301 298 294 294 295
322 316 314 315 314 312 307 306 311 314 310 311 310 307 304 307 313 322 324 317 315 314 312 310 315 318 320 323 322 318 316 313 311 311 309 305 299 295 298 297 299 301 300
310 310 311 311 310 302 302 305 308 309 310 311 310 309 302 305 315 322 322 324 318 318 318 317 315 320 324 326 325 320 312 314 314 313 310 305 299 296 298 297 297 295 292
309 309 309 307 308 313 306 303 302 307 311 312 310 309 302 302 315 319 322 323 322 320 317 315 315 323 328 327 324 318 319 321 316 311 308 307 306 304 303 299 295 288 281
314 312 307 304 297 294 296 303 308 308 308 309 308 309 312 311 317 321 320 321 322 322 314 314 321 327 329 326 320 321 324 319 313 310 310 308 305 300 301 301 296 281 260
315 308 302 299 298 295 296 297 302 304 304 307 309 313 315 316 316 315 316 319 321 320 315 317 326 327 325 322 322 320 317 312 312 310 309 306 303 301 302 303 302 297 277
303 296 297 298 297 303 301 293 300 288 297 308 311 313 315 317 316 319 324 323 324 322 326 324 322 323 323 322 321 319 317 315 313 311 310 308 307 306 306 306 296 288 274
299 299 301 302 302 305 306 306 306 310 312 312 312 313 315 314 317 321 324 326 329 332 332 325 323 322 322 322 321 319 317 315 314 313 311 308 308 310 310 309 301 298 349
293 303 304 302 300 303 304 309 315 317 316 314 314 316 317 319 321 323 325 329 333 333 329 322 322 322 320 319 317 315 314 313 313 312 311 310 310 312 312 312 316 15 70
300 310 312 300 299 302 306 310 312 314 316 314 314 316 319 322 323 323 327 334 330 329 323 321 320 319 318 317 315 313 312 313 315 314 313 312 315 318 320 327 357 62 74
307 300 295 293 298 304 308 310 310 309 309 311 312 317 321 321 320 322 330 328 321 322 322 320 319 317 315 314 313 312 312 313 314 316 315 319 325 330 338 1 29 61 59
295 305 312 307 307 310 310 309 310 310 311 312 315 318 319 317 320 323 322 315 317 320 321 320 318 314 313 312 312 313 314 315 316 317 320 328 337 346 1 17 25 29 34
290 300 311 312 307 307 308 307 308 310 312 312 312 314 317 321 320 316 317 318 319 320 319 318 316 313 312 312 313 315 315 315 316 318 324 335 345 355 4 16 23 30 36
292 299 301 302 305 306 306 308 311 310 310 310 312 313 316 317 313 313 316 318 317 315 315 315 312 310 310 312 314 315 315 314 316 319 327 337 345 354 1 11 16 18 18
296 298 300 302 304 307 310 307 307 309 310 310 311 312 314 313 314 315 315 316 316 316 315 313 311 309 310 313 314 313 310 309 311 317 328 335 345 352 357 2 2 359 356
288 290 297 303 305 304 305 308 309 309 309 310 311 311 311 313 313 313 313 313 314 314 313 312 310 308 311 316 317 314 310 312 315 331 343 350 356 355 357 359 355 351 345
288 292 298 300 302 304 305 307 308 308 308 308 308 309 312 312 311 311 312 312 311 312 312 313 312 313 316 318 318 317 321 336 360 8 11 19 18 9 1 359 357 6 20
293 297 300 300 298 298 300 303 302 300 301 304 307 309 310 310 310 310 312 313 316 317 315 315 314 317 318 320 319 326 341 2 11 21 29 18 11 5 359 359 9 24 35
Height
1481 1479 1478 1475 1473 1469 1465 1461 1457 1453 1449 1445 1440 1436 1431 1426 1421 1416 1411 1405 1400 1394 1389 1384 1379 1375 1370 1365 1361 1356 1351 1346 1338 1327 1321 1316 1313 1309 1306 1303 1300 1296 1292
1479 1477 1475 1472 1469 1465 1461 1457 1453 1449 1445 1441 1436 1432 1427 1422 1417 1411 1405 1399 1394 1388 1382 1378 1373 1368 1364 1359 1353 1348 1343 1338 1332 1322 1312 1307 1303 1300 1296 1291 1288 1284 1280
1477 1475 1472 1469 1465 1461 1457 1453 1449 1445 1441 1437 1432 1427 1422 1417 1411 1406 1400 1394 1388 1383 1377 1371 1366 1361 1355 1349 1345 1339 1334 1329 1323 1316 1306 1299 1293 1291 1286 1281 1277 1273 1269
1474 1471 1468 1465 1461 1457 1453 1450 1446 1441 1437 1433 1428 1424 1418 1412 1407 1400 1394 1388 1382 1376 1371 1365 1359 1354 1348 1342 1336 1332 1326 1319 1313 1307 1299 1291 1285 1281 1278 1271 1264 1261 1257
1470 1467 1464 1461 1457 1454 1450 1446 1442 1438 1433 1429 1424 1418 1413 1407 1401 1395 1388 1381 1375 1369 1363 1358 1353 1347 1342 1337 1332 1325 1318 1311 1305 1298 1290 1283 1277 1272 1268 1263 1256 1249 1245
1466 1463 1460 1457 1454 1450 1446 1442 1438 1434 1429 1424 1418 1412 1407 1401 1396 1389 1384 1376 1370 1363 1356 1350 1345 1340 1335 1330 1325 1319 1313 1306 1298 1291 1283 1276 1270 1265 1259 1254 1248 1241 1233
1463 1460 1457 1453 1450 1446 1443 1438 1434 1428 1423 1418 1413 1407 1401 1395 1389 1383 1377 1372 1365 1358 1351 1345 1339 1334 1328 1321 1315 1309 1304 1298 1292 1285 1275 1268 1262 1257 1251 1245 1240 1233 1226
1460 1457 1453 1450 1446 1443 1439 1434 1429 1424 1418 1412 1407 1401 1395 1389 1383 1377 1371 1365 1358 1352 1346 1340 1334 1327 1321 1315 1307 1299 1292 1286 1280 1273 1266 1259 1253 1248 1243 1237 1230 1222 1214
1457 1454 1450 1447 1443 1439 1435 1430 1424 1418 1413 1407 1401 1395 1389 1382 1376 1371 1366 1359 1352 1346 1340 1335 1329 1322 1315 1309 1301 1291 1282 1274 1268 1262 1257 1250 1244 1239 1234 1228 1220 1213 1205
1454 1451 1448 1444 1440 1436 1431 1425 1420 1414 1407 1401 1395 1390 1383 1377 1371 1366 1361 1355 1347 1340 1333 1328 1322 1316 1309 1302 1294 1285 1275 1265 1258 1249 1243 1238 1234 1229 1224 1219 1213 1206 1199
1451 1448 1445 1441 1436 1432 1426 1421 1415 1409 1402 1396 1389 1383 1378 1372 1366 1361 1356 1351 1344 1336 1328 1321 1314 1309 1302 1295 1288 1278 1270 1261 1252 1243 1234 1228 1223 1219 1214 1209 1204 1199 1192
1447 1444 1441 1437 1432 1427 1421 1416 1410 1404 1397 1390 1383 1376 1371 1366 1362 1356 1351 1346 1340 1332 1324 1316 1309 1303 1296 1288 1279 1270 1263 1254 1245 1237 1229 1222 1216 1210 1204 1198 1192 1187 1182
1443 1440 1436 1432 1427 1422 1416 1410 1404 1398 1392 1385 1378 1371 1365 1360 1355 1351 1346 1340 1334 1328 1320 1312 1305 1297 1289 1280 1271 1264 1256 1247 1240 1232 1224 1216 1209 1202 1195 1188 1182 1178 1173
1439 1435 1431 1426 1420 1416 1411 1406 1399 1393 1387 1380 1374 1368 1362 1356 1350 1345 1340 1334 1328 1321 1313 1305 1298 1291 1283 1275 1266 1257 1250 1243 1236 1228 1218 1209 1201 1194 1188 1182 1176 1171 1167
1434 1430 1425 1420 1415 1409 1405 1400 1394 1388 1384 1378 1372 1366 1359 1352 1347 1343 1337 1330 1323 1316 1308 1299 1292 1284 1275 1267 1259 1251 1244 1237 1229 1221 1212 1203 1195 1189 1182 1176 1171 1167 1164
1428 1423 1419 1414 1409 1404 1397 1391 1386 1383 1378 1373 1368 1363 1356 1351 1344 1338 1332 1326 1318 1311 1303 1295 1288 1281 1273 1264 1255 1246 1239 1231 1223 1215 1207 1199 1191 1184 1178 1172 1168 1165 1163
1423 1418 1414 1409 1404 1398 1391 1384 1377 1372 1370 1365 1361 1356 1351 1346 1340 1334 1327 1321 1314 1307 1299 1292 1285 1278 1269 1261 1253 1244 1235 1226 1218 1210 1202 1194 1188 1181 1175 1170 1166 1164 1163
1419 1414 1409 1404 1398 1392 1386 1380 1374 1368 1362 1357 1354 1350 1345 1340 1334 1329 1323 1316 1308 1302 1296 1289 1281 1274 1266 1257 1248 1239 1231 1222 1214 1206 1198 1191 1185 1179 1173 1169 1167 1166 1165
1413 1408 1403 1397 1392 1387 1381 1376 1371 1365 1360 1354 1348 1344 1340 1334 1329 1324 1319 1312 1305 1298 1291 1284 1277 1269 1261 1253 1244 1236 1227 1218 1210 1203 1196 1189 1184 1178 1174 1171 1169 1169 1168
1407 1402 1397 1392 1386 1381 1376 1372 1367 1362 1356 1351 1345 1339 1334 1329 1323 1318 1313 1307 1301 1294 1287 1280 1272 1265 1257 1248 1240 1232 1223 1215 1208 1201 1195 1190 1185 1180 1177 1175 1174 1173 1172
1401 1396 1392 1387 1382 1377 1372 1368 1363 1358 1352 1347 1341 1336 1332 1326 1320 1314 1309 1303 1297 1290 1283 1275 1267 1260 1252 1244 1236 1228 1220 1213 1206 1201 1196 1192 1188 1184 1182 1180 1178 1177 1176
1395 1390 1386 1381 1376 1372 1368 1363 1358 1353 1347 1342 1336 1331 1327 1322 1316 1310 1305 1299 1292 1286 1279 1271 1264 1256 1249 1241 1233 1225 1218 1211 1206 1202 1198 1194 1191 1188 1186 1184 1182 1180 1179
1390 1385 1380 1376 1371 1367 1362 1357 1352 1347 1342 1337 1332 1326 1321 1317 1311 1306 1300 1294 1288 1281 1274 1268 1260 1252 1245 1238 1231 1224 1217 1211 1207 1204 1200 1197 1194 1191 1189 1187 1185 1183 1181
1384 1380 1375 1370 1365 1361 1356 1351 1346 1341 1337 1332 1327 1322 1317 1312 1307 1302 1296 1290 1283 1277 1270 1264 1257 1249 1241 1234 1227 1222 1217 1213 1209 1206 1203 1199 1196 1194 1191 1189 1187 1186 1184
1378 1374 1369 1364 1359 1355 1350 1345 1341 1336 1332 1327 1322 1317 1313 1308 1302 1297 1291 1286 1280 1273 1266 1260 1254 1246 1239 1232 1226 1222 1218 1214 1211 1208 1205 1202 1199 1197 1195 1192 1191 1189 1188
1372 1367 1362 1358 1353 1349 1345 1340 1336 1331 1326 1322 1317 1313 1308 1303 1298 1293 1287 1282 1276 1270 1263 1257 1251 1244 1237 1232 1227 1223 1220 1217 1214 1211 1208 1205 1203 1201 1199 1197 1195 1194 1192